Ontario, OR

12:38 AM MDT on May 27, 2017 (GMT -0600)
Ontario Municipal

Weather History for KONO - October, 2012

Change the Weather History Date:

Wednesday, October 24, 2012

  Actual Average Record
Temperature  
Mean Temperature 35 °F 47 °F  
Max Temperature 42 °F 62 °F 76 °F (1988)
Min Temperature 27 °F 32 °F 22 °F (1949)
Degree Days  
Heating Degree Days 30 18  
Month to date heating degree days 336 318  
Since 1 July heating degree days 377 452  
Cooling Degree Days 0 0  
Month to date cooling degree days 1 0  
Year to date cooling degree days 1091 851  
Moisture  
Dew Point 31 °F    
Average Humidity 83    
Maximum Humidity 92    
Minimum Humidity 73    
Precipitation  
Precipitation T in 0.03 in 0.62 in (2010)
Month to date precipitation 0.80 0.43  
Year to date precipitation 6.63 7.08  
Sea Level Pressure  
Sea Level Pressure 30.10 in    
Wind  
Wind Speed 2 mph (NE)    
Max Wind Speed 10 mph    
Max Gust Speed 15 mph    
Visibility 10 miles    
Events Rain , Snow    
T = Trace of Precipitation, MM = Missing Value Source: NWS Daily Summary

Daily Weather History Graph

Daily Weather History Graph

Search for Another Location

Airport or City:

Trip Planner

Search our weather history database for the weather conditions in past years. The results will help you decide how hot, cold, wet, or windy it might be!

Date:

Astronomy

Oct. 24, 2012 Rise Set
Actual Time 8:14 AM MDT 6:48 PM MDT
Civil Twilight 7:45 AM MDT 7:18 PM MDT
Nautical Twilight 7:11 AM MDT 7:52 PM MDT
Astronomical Twilight 6:38 AM MDT 8:25 PM MDT
Moon 4:15 PM MDT (10/24) 3:05 AM MDT (10/24)
Length of Visible Light 11h 33m
Length of Day
10h 33m
Waxing Gibbous, 76% of the Moon is Illuminated
Oct 24
Waxing Gibbous
Oct 29
Full
Nov 6
Last Quarter
Nov 13
New
Nov 20
First Quarter

Hourly Weather History & Observations

Time (MDT) Temp. Windchill Dew Point Humidity Pressure Visibility Wind Dir Wind Speed Gust Speed Precip Events Conditions
12:53 AM 35.1 °F 32.2 °F 30.9 °F 85% 30.03 in 10.0 mi ENE 3.5 mph - N/A   Clear
1:53 AM 35.1 °F 30.1 °F 28.9 °F 78% 30.04 in 10.0 mi ENE 5.8 mph - N/A   Clear
2:53 AM 30.0 °F - 26.1 °F 85% 30.04 in 10.0 mi Calm Calm - N/A   Clear
3:53 AM 28.9 °F 23.9 °F 26.1 °F 89% 30.05 in 10.0 mi WSW 4.6 mph - N/A   Clear
4:53 AM 27.0 °F - 24.1 °F 89% 30.04 in 10.0 mi Calm Calm - N/A   Clear
5:53 AM 27.0 °F - 24.1 °F 89% 30.05 in 10.0 mi Calm Calm - N/A   Clear
6:53 AM 28.0 °F - 24.1 °F 85% 30.06 in 10.0 mi Calm Calm - N/A   Clear
7:53 AM 27.0 °F - 24.1 °F 89% 30.06 in 10.0 mi Calm Calm - N/A   Clear
8:26 AM 26.6 °F - 24.8 °F 93% 30.01 in 10.0 mi Calm Calm - N/A   Partly Cloudy
8:53 AM 27.0 °F - 24.1 °F 89% 30.08 in 10.0 mi Calm Calm - N/A   Partly Cloudy
9:53 AM 30.0 °F - 27.0 °F 88% 30.09 in 10.0 mi Calm Calm - N/A   Overcast
10:53 AM 32.0 °F 26.4 °F 28.9 °F 88% 30.10 in 10.0 mi SW 5.8 mph - N/A   Overcast
11:53 AM 34.0 °F 27.2 °F 30.0 °F 85% 30.11 in 10.0 mi WSW 8.1 mph - N/A   Overcast
12:53 PM 35.1 °F 32.2 °F 30.9 °F 85% 30.12 in 9.0 mi WSW 3.5 mph - 0.00 in Snow Light Snow
1:53 PM 37.0 °F - 32.0 °F 82% 30.11 in 10.0 mi Calm Calm - 0.00 in Rain Light Rain
2:30 PM 37.4 °F 34.9 °F 33.8 °F 87% 30.06 in 10.0 mi East 3.5 mph - 0.00 in   Overcast
2:53 PM 39.0 °F 35.7 °F 34.0 °F 82% 30.11 in 10.0 mi East 4.6 mph - 0.00 in   Overcast
3:00 PM 39.2 °F - 33.8 °F 81% 30.06 in 10.0 mi Calm Calm - N/A   Overcast
3:43 PM 39.2 °F - 33.8 °F 81% 30.06 in 10.0 mi Calm Calm - N/A   Overcast
3:53 PM 39.9 °F - 34.0 °F 79% 30.12 in 6.0 mi Calm Calm - N/A   Haze
4:03 PM 39.2 °F - 33.8 °F 81% 30.07 in 9.0 mi Calm Calm - N/A   Overcast
4:23 PM 41.0 °F - 33.8 °F 76% 30.07 in 10.0 mi Calm Calm - N/A   Overcast
4:53 PM 41.0 °F 38.0 °F 34.0 °F 76% 30.13 in 10.0 mi East 4.6 mph - N/A   Overcast
5:34 PM 41.0 °F - 33.8 °F 76% 30.08 in 10.0 mi Calm Calm - N/A   Overcast
5:53 PM 41.0 °F - 34.0 °F 76% 30.14 in 10.0 mi Calm Calm - N/A   Overcast
7:53 PM 39.9 °F 37.8 °F 35.1 °F 83% 30.17 in 10.0 mi NNW 3.5 mph - N/A   Overcast
8:53 PM 39.0 °F - 35.1 °F 86% 30.18 in 10.0 mi Calm Calm - N/A   Overcast
9:53 PM 39.0 °F - 35.1 °F 86% 30.19 in 10.0 mi Calm Calm - N/A   Overcast
10:02 PM 39.2 °F - 35.6 °F 87% 30.13 in 10.0 mi Calm Calm - N/A   Overcast
10:53 PM 37.9 °F 35.5 °F 35.1 °F 89% 30.20 in 10.0 mi NNW 3.5 mph - N/A   Overcast
11:53 PM 39.0 °F - 36.0 °F 89% 30.21 in 10.0 mi Calm Calm - N/A   Overcast